TimeEDT,TemperatureF,Dew PointF,Humidity,Sea Level PressureIn,VisibilityMPH,Wind Direction,Wind SpeedMPH,Gust SpeedMPH,PrecipitationIn,Events,Conditions,WindDirDegrees,DateUTC
12:51 AM,75.9,68.0,76,30.18,10.0,SSW,11.5,-,N/A,,Scattered Clouds,210,2013-07-03 04:51:00
1:51 AM,75.9,66.9,74,30.18,10.0,SW,13.8,20.7,N/A,,Mostly Cloudy,220,2013-07-03 05:51:00
2:51 AM,75.0,66.9,76,30.18,10.0,SW,12.7,-,N/A,,Mostly Cloudy,220,2013-07-03 06:51:00
3:51 AM,75.0,66.9,76,30.19,10.0,SSW,10.4,-,N/A,,Mostly Cloudy,210,2013-07-03 07:51:00
4:51 AM,73.9,66.9,79,30.20,10.0,SSW,8.1,-,N/A,,Mostly Cloudy,210,2013-07-03 08:51:00
5:51 AM,75.0,68.0,79,30.21,10.0,SSW,6.9,-,N/A,,Mostly Cloudy,210,2013-07-03 09:51:00
6:51 AM,75.0,69.1,82,30.23,10.0,SW,8.1,-,N/A,,Mostly Cloudy,230,2013-07-03 10:51:00
7:51 AM,75.9,69.1,79,30.23,10.0,SSW,8.1,-,N/A,,Mostly Cloudy,210,2013-07-03 11:51:00
8:51 AM,78.1,69.1,74,30.24,10.0,South,6.9,-,N/A,,Mostly Cloudy,190,2013-07-03 12:51:00
9:51 AM,79.0,69.1,72,30.25,10.0,SSW,8.1,-,N/A,,Mostly Cloudy,210,2013-07-03 13:51:00
10:51 AM,81.0,68.0,65,30.24,10.0,WSW,9.2,-,0.00,,Mostly Cloudy,250,2013-07-03 14:51:00
11:51 AM,82.0,69.1,65,30.23,10.0,SW,10.4,-,N/A,,Mostly Cloudy,230,2013-07-03 15:51:00
12:26 PM,82.4,69.8,66,30.23,10.0,SSW,9.2,-,N/A,,Mostly Cloudy,200,2013-07-03 16:26:00
12:51 PM,84.0,69.1,61,30.23,10.0,Variable,6.9,-,N/A,,Mostly Cloudy,0,2013-07-03 16:51:00
1:23 PM,84.2,69.8,62,30.22,10.0,SSW,9.2,16.1,N/A,,Mostly Cloudy,210,2013-07-03 17:23:00
1:51 PM,81.0,70.0,69,30.22,10.0,South,18.4,-,N/A,,Mostly Cloudy,180,2013-07-03 17:51:00
2:44 PM,78.8,73.4,83,30.22,2.0,WSW,8.1,-,0.03,Rain,Heavy Rain,250,2013-07-03 18:44:00
2:51 PM,79.0,73.0,82,30.21,1.5,SSW,9.2,-,0.07,Rain,Heavy Rain,200,2013-07-03 18:51:00
3:02 PM,78.8,73.4,83,30.20,2.5,South,10.4,-,0.07,Rain,Heavy Rain,170,2013-07-03 19:02:00
3:08 PM,78.8,73.4,83,30.20,1.8,South,12.7,-,0.10,Rain,Heavy Rain,170,2013-07-03 19:08:00
3:18 PM,78.8,71.6,78,30.20,2.5,SSW,8.1,-,0.18,Rain,Rain,200,2013-07-03 19:18:00
3:25 PM,78.8,71.6,78,30.20,8.0,South,10.4,-,0.18,Rain,Light Rain,180,2013-07-03 19:25:00
3:51 PM,82.0,72.0,71,30.18,10.0,South,12.7,-,0.18,,Mostly Cloudy,170,2013-07-03 19:51:00
4:51 PM,84.0,71.1,65,30.18,10.0,SSE,11.5,-,N/A,,Mostly Cloudy,150,2013-07-03 20:51:00
5:51 PM,82.9,71.1,67,30.17,10.0,South,10.4,17.3,N/A,,Mostly Cloudy,170,2013-07-03 21:51:00
6:51 PM,82.0,71.1,69,30.17,10.0,South,8.1,-,0.00,Rain,Light Rain,180,2013-07-03 22:51:00
7:10 PM,80.6,73.4,79,30.18,1.5,WSW,6.9,-,0.01,Rain,Heavy Rain,250,2013-07-03 23:10:00
7:17 PM,78.8,73.4,83,30.18,4.0,Calm,Calm,-,0.10,Rain,Light Rain,0,2013-07-03 23:17:00
7:25 PM,80.6,73.4,79,30.19,1.5,South,18.4,-,0.12,Rain,Heavy Rain,190,2013-07-03 23:25:00
7:27 PM,78.8,73.4,83,30.19,0.8,South,12.7,20.7,0.16,Rain,Heavy Rain,190,2013-07-03 23:27:00
7:31 PM,77.0,73.4,89,30.19,0.5,SSW,5.8,20.7,0.42,Fog-Rain-Thunderstorm,Heavy Thunderstorms and Rain,200,2013-07-03 23:31:00
7:37 PM,78.8,73.4,83,30.19,1.2,SSW,5.8,-,0.49,Rain-Thunderstorm,Heavy Thunderstorms and Rain,210,2013-07-03 23:37:00
7:39 PM,78.8,73.4,83,30.19,2.0,SSW,8.1,-,0.51,Rain-Thunderstorm,Thunderstorms and Rain,200,2013-07-03 23:39:00
7:43 PM,78.8,73.4,83,30.19,3.0,SSW,10.4,-,0.51,Rain-Thunderstorm,Light Thunderstorms and Rain,200,2013-07-03 23:43:00
7:51 PM,78.1,73.9,87,30.19,2.5,SSW,13.8,-,0.54,Rain-Thunderstorm,Thunderstorms and Rain,200,2013-07-03 23:51:00
7:53 PM,78.8,73.4,83,30.19,2.0,SSW,13.8,-,0.01,Rain-Thunderstorm,Heavy Thunderstorms and Rain,200,2013-07-03 23:53:00
8:19 PM,78.8,73.4,83,30.18,10.0,South,9.2,-,0.17,,Overcast,190,2013-07-04 00:19:00
8:51 PM,79.0,73.9,84,30.19,10.0,South,6.9,-,0.17,,Mostly Cloudy,190,2013-07-04 00:51:00
9:51 PM,78.1,73.9,87,30.21,10.0,SSW,5.8,-,N/A,,Mostly Cloudy,200,2013-07-04 01:51:00
10:51 PM,77.0,73.0,88,30.21,10.0,South,8.1,-,N/A,,Scattered Clouds,190,2013-07-04 02:51:00
11:51 PM,79.0,73.9,84,30.22,10.0,SSW,8.1,-,N/A,,Mostly Cloudy,210,2013-07-04 03:51:00